Weather History for Worthington, MN

Change the Weather History Date:

Sunday, February 3, 2013

  Actual Average Record
Temperature  
Mean Temperature 18 °F -  
Max Temperature 26 °F 25 °F 55 °F (2005)
Min Temperature 10 °F 10 °F -24 °F (1989)
Degree Days  
Heating Degree Days 47    
Moisture  
Dew Point 9 °F    
Average Humidity 69    
Maximum Humidity 79    
Minimum Humidity 54    
Precipitation  
Precipitation 0.00 in - - ()
Sea Level Pressure  
Sea Level Pressure 29.96 in    
Wind  
Wind Speed 15 mph (NNW)    
Max Wind Speed 28 mph    
Max Gust Speed 34 mph    
Visibility 10 miles    
Events      
Averages and records for this station are not official NWS values.
T = Trace of Precipitation, MM = Missing Value Source: NWS Daily Summary

Daily Weather History Graph

Daily Weather History Graph

Search for Another Location

Airport:

Trip Planner

Search our weather history database for the weather conditions in past years. The results will help you decide how hot, cold, wet, or windy it might be!

Date:

Astronomy

Feb. 03, 2013 Rise Set
Actual Time 7:36 AM CST 5:36 PM CST
Civil Twilight 7:05 AM CST 6:06 PM CST
Nautical Twilight 6:31 AM CST 6:41 PM CST
Astronomical Twilight 5:58 AM CST 7:14 PM CST
Moon 1:05 AM CST (2/3) 11:13 AM CST (2/3)
Length of Visible Light 11h 00m
Length of Day
10h 00m
Waning Gibbous, 48% of the Moon is Illuminated
Feb 3
Waning Gibbous
Feb 10
New
Feb 17
First Quarter
Feb 25
Full
Mar 4
Last Quarter

Hourly Weather History & Observations

Time (CST) Temp. Windchill Dew Point Humidity Pressure Visibility Wind Dir Wind Speed Gust Speed Precip Events Conditions
12:15 AM 19.4 °F 2.1 °F 8.6 °F 63% 30.03 in 10.0 mi NW 24.2 mph - N/A   Overcast
12:35 AM 19.4 °F 3.6 °F 10.4 °F 68% 30.04 in 9.0 mi WNW 19.6 mph 32.2 mph N/A   Overcast
12:55 AM 19.4 °F 1.1 °F 8.6 °F 63% 30.05 in 10.0 mi NW 27.6 mph 32.2 mph N/A   Overcast
1:15 AM 17.6 °F 0.1 °F 8.6 °F 68% 30.06 in 10.0 mi NW 23.0 mph 33.4 mph N/A   Mostly Cloudy
1:35 AM 17.6 °F -0.3 °F 8.6 °F 68% 30.06 in 10.0 mi NW 24.2 mph 34.5 mph N/A   Partly Cloudy
1:55 AM 15.8 °F -0.2 °F 6.8 °F 68% 30.07 in 10.0 mi NW 17.3 mph - N/A   Clear
2:15 AM 15.8 °F 0.3 °F 6.8 °F 68% 30.07 in 10.0 mi NW 16.1 mph - N/A   Clear
2:35 AM 14.0 °F 0.5 °F 6.8 °F 73% 30.07 in 10.0 mi NW 11.5 mph - N/A   Clear
2:55 AM 15.8 °F 0.9 °F 6.8 °F 68% 30.07 in 10.0 mi NW 15.0 mph - N/A   Clear
3:15 AM 14.0 °F -2.5 °F 6.8 °F 73% 30.07 in 10.0 mi WNW 17.3 mph - N/A   Clear
3:35 AM 14.0 °F -3.4 °F 5.0 °F 67% 30.08 in 10.0 mi WNW 19.6 mph - N/A   Clear
3:55 AM 12.2 °F -4.3 °F 5.0 °F 73% 30.07 in 10.0 mi WNW 16.1 mph - N/A   Clear
4:15 AM 12.2 °F -4.3 °F 5.0 °F 73% 30.07 in 10.0 mi WNW 16.1 mph - N/A   Clear
4:35 AM 12.2 °F -2.5 °F 5.0 °F 73% 30.07 in 10.0 mi WNW 12.7 mph - N/A   Clear
4:55 AM 12.2 °F -2.5 °F 3.2 °F 67% 30.07 in 10.0 mi WNW 12.7 mph - N/A   Clear
5:15 AM 12.2 °F -3.7 °F 3.2 °F 67% 30.08 in 10.0 mi West 15.0 mph - N/A   Clear
5:35 AM 10.4 °F -4.8 °F 3.2 °F 73% 30.08 in 10.0 mi WNW 12.7 mph - N/A   Clear
5:55 AM 10.4 °F -3.3 °F 3.2 °F 73% 30.07 in 10.0 mi West 10.4 mph - N/A   Clear
6:15 AM 10.4 °F -4.1 °F 1.4 °F 67% 30.07 in 10.0 mi West 11.5 mph - N/A   Clear
6:35 AM 10.4 °F -2.4 °F 1.4 °F 67% 30.06 in 10.0 mi West 9.2 mph - N/A   Mostly Cloudy
6:55 AM 10.4 °F -3.3 °F 3.2 °F 73% 30.05 in 10.0 mi West 10.4 mph - N/A   Overcast
7:15 AM 10.4 °F -3.3 °F 3.2 °F 73% 30.05 in 10.0 mi West 10.4 mph - N/A   Overcast
7:35 AM 10.4 °F -4.1 °F 3.2 °F 73% 30.05 in 10.0 mi West 11.5 mph - N/A   Mostly Cloudy
7:55 AM 10.4 °F -3.3 °F 3.2 °F 73% 30.04 in 10.0 mi West 10.4 mph - N/A   Mostly Cloudy
8:15 AM 12.2 °F 0.7 °F 3.2 °F 67% 30.05 in 10.0 mi West 8.1 mph - N/A   Overcast
8:35 AM 12.2 °F -0.2 °F 5.0 °F 73% 30.05 in 10.0 mi West 9.2 mph - N/A   Overcast
8:55 AM 14.0 °F 2.9 °F 5.0 °F 67% 30.03 in 10.0 mi West 8.1 mph - N/A   Overcast
9:15 AM 14.0 °F 3.9 °F 5.0 °F 67% 30.05 in 10.0 mi West 6.9 mph - N/A   Overcast
9:35 AM 15.8 °F 5.1 °F 6.8 °F 68% 30.06 in 10.0 mi West 8.1 mph - N/A   Overcast
9:55 AM 15.8 °F 3.4 °F 6.8 °F 68% 30.05 in 10.0 mi West 10.4 mph - N/A   Overcast
10:15 AM 15.8 °F 4.2 °F 6.8 °F 68% 30.05 in 10.0 mi West 9.2 mph - N/A   Overcast
10:35 AM 17.6 °F 5.7 °F 6.8 °F 63% 30.05 in 10.0 mi West 10.4 mph - N/A   Overcast
10:55 AM 17.6 °F 7.3 °F 8.6 °F 68% 30.04 in 10.0 mi West 8.1 mph - N/A   Overcast
11:15 AM 17.6 °F 8.2 °F 8.6 °F 68% 30.03 in 10.0 mi WSW 6.9 mph - N/A   Overcast
11:35 AM 19.4 °F 10.4 °F 10.4 °F 68% 30.03 in 10.0 mi WSW 6.9 mph - N/A   Overcast
11:55 AM 19.4 °F 11.5 °F 10.4 °F 68% 30.02 in 10.0 mi SW 5.8 mph - N/A   Overcast
12:15 PM 21.2 °F - 10.4 °F 63% 30.00 in 10.0 mi Calm Calm - N/A   Mostly Cloudy
12:35 PM 24.8 °F - 10.4 °F 54% 29.97 in 10.0 mi Calm Calm - N/A   Partly Cloudy
12:55 PM 23.0 °F - 10.4 °F 59% 29.97 in 10.0 mi Calm Calm - N/A   Clear
1:15 PM 24.8 °F 17.9 °F 12.2 °F 59% 29.95 in 10.0 mi East 5.8 mph - N/A   Mostly Cloudy
1:35 PM 24.8 °F 19.1 °F 12.2 °F 59% 29.94 in 10.0 mi ESE 4.6 mph - N/A   Scattered Clouds
1:55 PM 24.8 °F 19.1 °F 12.2 °F 59% 29.93 in 10.0 mi SE 4.6 mph - N/A   Scattered Clouds
2:15 PM 24.8 °F 16.9 °F 14.0 °F 64% 29.93 in 10.0 mi ESE 6.9 mph - N/A   Partly Cloudy
2:35 PM 24.8 °F 16.9 °F 15.8 °F 69% 29.92 in 10.0 mi East 6.9 mph - N/A   Clear
2:55 PM 24.8 °F 16.9 °F 15.8 °F 69% 29.91 in 10.0 mi ESE 6.9 mph - N/A   Clear
3:15 PM 24.8 °F 15.3 °F 15.8 °F 69% 29.89 in 10.0 mi ESE 9.2 mph - N/A   Clear
3:35 PM 24.8 °F 15.3 °F 17.6 °F 74% 29.88 in 10.0 mi East 9.2 mph - N/A   Clear
3:55 PM 26.6 °F 16.2 °F 17.6 °F 69% 29.88 in 10.0 mi East 11.5 mph - N/A   Clear
4:15 PM 24.8 °F 14.6 °F 15.8 °F 69% 29.86 in 10.0 mi East 10.4 mph - N/A   Clear
4:35 PM 24.8 °F 13.4 °F 15.8 °F 69% 29.86 in 10.0 mi East 12.7 mph - N/A   Clear
4:55 PM 24.8 °F 13.4 °F 14.0 °F 64% 29.85 in 10.0 mi East 12.7 mph - N/A   Scattered Clouds
5:15 PM 23.0 °F 11.1 °F 15.8 °F 74% 29.84 in 10.0 mi ENE 12.7 mph - N/A   Overcast
5:35 PM 23.0 °F 11.1 °F 14.0 °F 68% 29.84 in 10.0 mi ENE 12.7 mph - N/A   Overcast
5:55 PM 23.0 °F 10.6 °F 14.0 °F 68% 29.84 in 10.0 mi East 13.8 mph - N/A   Overcast
6:15 PM 23.0 °F 11.1 °F 14.0 °F 68% 29.84 in 10.0 mi East 12.7 mph - N/A   Mostly Cloudy
6:35 PM 23.0 °F 11.7 °F 14.0 °F 68% 29.83 in 10.0 mi East 11.5 mph - N/A   Clear
6:55 PM 21.2 °F 7.8 °F 14.0 °F 74% 29.83 in 10.0 mi East 15.0 mph - N/A   Clear
7:15 PM 21.2 °F 10.1 °F 14.0 °F 74% 29.82 in 10.0 mi East 10.4 mph - N/A   Clear
7:35 PM 21.2 °F 10.9 °F 14.0 °F 74% 29.82 in 10.0 mi East 9.2 mph - N/A   Clear
7:55 PM 21.2 °F 10.1 °F 14.0 °F 74% 29.82 in 10.0 mi ENE 10.4 mph - N/A   Clear
8:15 PM 21.2 °F 9.5 °F 14.0 °F 74% 29.81 in 10.0 mi East 11.5 mph - N/A   Clear
8:35 PM 21.2 °F 10.9 °F 14.0 °F 74% 29.81 in 10.0 mi ENE 9.2 mph - N/A   Clear
8:55 PM 21.2 °F 9.5 °F 12.2 °F 68% 29.81 in 10.0 mi ENE 11.5 mph - N/A   Clear
9:15 PM 19.4 °F 6.6 °F 12.2 °F 74% 29.80 in 10.0 mi East 12.7 mph - N/A   Clear
9:35 PM 21.2 °F 10.1 °F 12.2 °F 68% 29.80 in 10.0 mi ENE 10.4 mph - N/A   Clear
9:55 PM 19.4 °F 6.0 °F 12.2 °F 74% 29.82 in 10.0 mi NNE 13.8 mph - N/A   Scattered Clouds
10:15 PM 19.4 °F 5.0 °F 10.4 °F 68% 29.83 in 10.0 mi NNE 16.1 mph - N/A   Overcast
10:35 PM 17.6 °F 2.2 °F 10.4 °F 73% 29.83 in 10.0 mi NNE 17.3 mph - N/A   Overcast
10:55 PM 15.8 °F -0.2 °F 10.4 °F 79% 29.82 in 10.0 mi NNE 17.3 mph - N/A   Overcast
11:15 PM 15.8 °F -0.2 °F 8.6 °F 73% 29.83 in 10.0 mi NNE 17.3 mph - N/A   Overcast
11:35 PM 15.8 °F -1.1 °F 8.6 °F 73% 29.83 in 10.0 mi NNE 19.6 mph - N/A   Overcast
11:55 PM 15.8 °F -1.5 °F 8.6 °F 73% 29.83 in 10.0 mi NNE 20.7 mph - N/A   Overcast